{"data":{"norad_id":62773,"intl_designator":"2025-015R","name":"STARLINK-33567","alt_names":[],"object_type":"PAYLOAD","status":"ACTIVE","operator":null,"country":"US","launch_date":"2025-01-21","launch_site_code":"AFWTR","launch_vehicle":null,"mission":null,"orbit_class":"UNKNOWN","rcs_meters":null,"size_class":null,"mass_kg":null,"dimensions":null,"purposes":["comms"],"wikipedia_slug":null,"has_3d_model":false,"image_url":null,"decayed_at":null,"tle_current":{"epoch":"2026-05-25T04:00:03.998880Z","epoch_age_seconds":60753,"freshness":"FRESH","line1":"1 62773U 25015R   26145.16671295 -.00018356  00000+0 -53357-3 0  9993","line2":"2 62773  53.1603 326.9516 0000888  89.6889 282.9516 15.34393271  5858","mean_motion":15.34393271,"eccentricity":8.88e-5,"inclination_deg":53.1603,"raan_deg":326.9516,"arg_perigee_deg":89.6889,"mean_anomaly_deg":282.9516,"bstar":-0.00053357,"rev_number":585,"period_min":93.848169645681,"perigee_km":462.11577189693,"apogee_km":463.33070867561,"semimajor_km":6840.8602402863,"source":"CELESTRAK","updated_at":"2026-05-25T13:38:19.746280Z"}}}